User: anonymous
Location: Cranbrook Institute of Science
(42.5830°N, 83.2450°W)
Time: 23:44:57
(UTC-04:00)
Language:

CZ-4B R/B - Orbit

View from above orbital plane
View from above orbital plane
View from above satellite
View from above satellite

Ground track
Ground track

The orbit data is extracted from the following two-line orbital elements,

1 29093U 06015B   14212.78865142  .00007139  00000-0  25873-3 0  3550
2 29093 097.5192 292.4443 0092104 104.2382 050.1226 15.24680725456373
Epoch (UTC): 31 July 2014 18:55:39
Eccentricity: 0.0092104
inclination: 97.5192°
perigee height: 428 km
apogee height: 555 km
right ascension of ascending node: 292.4443°
argument of perigee: 104.2382°
revolutions per day: 15.24680725
mean anomaly at epoch: 50.1226°
orbit number at epoch: 45637

The dashed part of the orbit path shows where the satellite is in the earth's shadow,  

DLR